TimeEDT,TemperatureF,Dew PointF,Humidity,Sea Level PressureIn,VisibilityMPH,Wind Direction,Wind SpeedMPH,Gust SpeedMPH,PrecipitationIn,Events,Conditions,WindDirDegrees,DateUTC
12:54 AM,51.1,48.0,89,30.07,10.0,Calm,Calm,-,N/A,,Clear,0,2013-06-15 04:54:00
1:54 AM,52.0,48.9,89,30.06,7.0,Calm,Calm,-,N/A,,Clear,0,2013-06-15 05:54:00
2:54 AM,48.9,46.9,93,30.06,8.0,Calm,Calm,-,N/A,,Clear,0,2013-06-15 06:54:00
3:54 AM,48.9,48.0,97,30.06,5.0,Calm,Calm,-,N/A,,Clear,0,2013-06-15 07:54:00
4:54 AM,51.1,48.9,92,30.07,7.0,SSW,3.5,-,N/A,,Clear,200,2013-06-15 08:54:00
5:54 AM,48.9,48.0,97,30.09,7.0,Calm,Calm,-,N/A,,Clear,0,2013-06-15 09:54:00
6:54 AM,50.0,48.9,96,30.10,9.0,Calm,Calm,-,N/A,,Clear,0,2013-06-15 10:54:00
7:54 AM,57.9,53.1,84,30.12,10.0,Calm,Calm,-,N/A,,Clear,0,2013-06-15 11:54:00
8:54 AM,64.0,54.0,70,30.13,10.0,Calm,Calm,-,N/A,,Clear,0,2013-06-15 12:54:00
9:54 AM,68.0,51.1,55,30.13,10.0,WSW,6.9,-,N/A,,Clear,240,2013-06-15 13:54:00
10:54 AM,71.1,48.9,45,30.11,10.0,Calm,Calm,-,N/A,,Clear,0,2013-06-15 14:54:00
11:54 AM,73.0,50.0,44,30.09,10.0,WNW,8.1,-,N/A,,Partly Cloudy,290,2013-06-15 15:54:00
12:54 PM,73.9,50.0,43,30.09,10.0,Variable,4.6,-,N/A,,Clear,0,2013-06-15 16:54:00
1:54 PM,75.0,50.0,41,30.06,10.0,SSW,9.2,-,N/A,,Partly Cloudy,210,2013-06-15 17:54:00
2:54 PM,77.0,51.1,40,30.05,10.0,WSW,9.2,17.3,N/A,,Scattered Clouds,240,2013-06-15 18:54:00
3:54 PM,75.9,50.0,40,30.05,10.0,Calm,Calm,-,N/A,,Clear,0,2013-06-15 19:54:00
4:54 PM,75.9,50.0,40,30.04,10.0,SSW,10.4,-,N/A,,Partly Cloudy,210,2013-06-15 20:54:00
5:54 PM,75.0,52.0,44,30.04,10.0,WSW,8.1,-,N/A,,Mostly Cloudy,240,2013-06-15 21:54:00
6:54 PM,73.9,53.1,48,30.03,10.0,SW,6.9,-,N/A,,Scattered Clouds,220,2013-06-15 22:54:00
7:54 PM,68.0,57.9,70,30.03,10.0,SW,4.6,-,0.00,Rain,Light Rain,230,2013-06-15 23:54:00
8:54 PM,66.9,60.1,79,29.99,10.0,Calm,Calm,-,0.01,,Mostly Cloudy,0,2013-06-16 00:54:00
9:54 PM,66.9,57.9,73,29.99,10.0,Calm,Calm,-,N/A,,Overcast,0,2013-06-16 01:54:00
10:54 PM,66.0,59.0,78,30.01,10.0,Calm,Calm,-,N/A,,Overcast,0,2013-06-16 02:54:00
11:54 PM,66.9,57.0,70,30.00,10.0,Calm,Calm,-,N/A,,Overcast,0,2013-06-16 03:54:00